Regional Weather Roundup
Issued by NWS Goodland, KS

Home | Current Version | Previous Version | Graphics & Text | Print | Product List | Glossary On
Versions: 1 2 3 4 5 6 7 8 9 10 11 12 13 14 15 16 17 18 19 20 21 22 23 24 25 26 27 28 29 30 31 32 33 34 35 36 37 38 39 40 41 42 43 44 45 46 47 48 49 50
161
ASUS43 KGLD 091108
RWRGLD

GOODLAND FORECAST AREA HOURLY WEATHER ROUNDUP
NATIONAL WEATHER SERVICE GOODLAND KS
400 AM MST FRI DEC 09 2016

...OFFICIAL OBSERVATIONS...

CITY           SKY/WX    TMP DP  RH WIND       PRES   REMARKS
GOODLAND KS    CLOUDY    10   5  80 S14       30.27F WCI  -6
HILL CITY KS   CLOUDY    16   9  74 SE7       30.47F
IMPERIAL NEB   CLOUDY    10   3  73 SE10      30.30F WCI  -4
MCCOOK NEB     CLOUDY     7   1  76 SE8       30.39F
AKRON CO       CLOUDY     8   0  69 S13       30.12F WCI  -8
BURLINGTON CO  CLOUDY     6  -1  73 S12       30.21F WCI  -9
LIMON CO       CLOUDY     1  -2  87 SE6       30.12F
$$

...UNOFFICIAL OBSERVATIONS...

CITY           SKY/WX    TMP DP  RH WIND       PRES   REMARKS
COLBY KS       CLOUDY    16   9  73 SE13      30.34F WCI   2
LENORA KS        N/A     14  32 100 MISG        N/A
NORTON KS      CLOUDY    14   5  67 SE5       30.43F
SHARON SPRINGS   N/A     14   9  81 SE12        N/A  WCI   0
TRENTON NEB      N/A      7  32 100 S5          N/A
KIT CARSON CO    N/A      6  -1  74 CALM        N/A
YUMA CO        FAIR       5   0  78 S10       30.19F WCI -10
$$




USA.gov is the U.S. government's official web portal to all federal, state and local government web resources and services.